Flag for Australia Weather past 2 weeks in Adelaide, South Australia, Australia

Now
54 °F

Scattered clouds.


Feels Like: 49 °F
Forecast: 48 / 55 °F
Wind: 17 mph from West

Location: Adelaide Airport

Current Time: Aug 2, 2015 at 10:20:05 AM

Latest Report: Aug 2, 2015 at 10:00 AM


Visibility: N/A

Pressure: 30.12 "Hg

Humidity: 67%

Dew point: 43 °F

Location of AdelaideLocation

Historic Weather in Adelaide — Graph

°F

Adelaide temperature yesterday

Maximum temperature yesterday: 57 °F (at 12:00 AM)
Minimum temperature yesterday: 48 °F (at 9:00 PM)
Average temperature yesterday: 52 °F

Past Weeks' High & Low Weather Summary

 TemperatureHumidityPressure
High64 °F (Jul 23, 2:30 PM)100% (Jul 22, 7:30 AM)30.66 "Hg (Jul 22, 7:30 AM)
Low36 °F (Jul 19, 5:00 AM)38% (Jul 20, 1:30 PM)29.89 "Hg (Aug 1, 12:30 AM)
Average50 °F74%30.21 "Hg
* Reported Jul 18 8:30 AM — Aug 2 9:00 AM, Adelaide, Weather by CustomWeather, © 2015

Note: Actual official high and low records may vary slightly from our data, if they occured in-between our weather recording intervals... More about our weather records

Advertising

Adelaide weather history for previous 24 hours

 ConditionsComfort  
Time TempWeatherWind HumidityBarometerVisibility
9:00 AM
Sun, Aug 2
54 °FPassing clouds.14 mph67%30.12 "HgN/A
8:30 AM52 °FPassing clouds.12 mph72%30.09 "HgN/A
8:00 AM50 °FPassing clouds.12 mph71%30.09 "HgN/A
7:30 AM50 °FPartly sunny.13 mph71%30.09 "HgN/A
7:00 AM48 °FLight rain. Broken clouds.18 mph87%30.09 "HgN/A
6:30 AM50 °FPartly cloudy.10 mph82%30.09 "HgN/A
6:00 AM50 °FPartly cloudy.10 mph76%30.07 "HgN/A
5:30 AM50 °FPassing clouds.9 mph76%30.07 "HgN/A
5:00 AM50 °FPassing clouds.9 mph76%30.07 "HgN/A
4:30 AM50 °FPassing clouds.13 mph76%30.07 "HgN/A
4:00 AM50 °FPassing clouds.9 mph76%30.07 "HgN/A
3:30 AM50 °FPartly cloudy.7 mph82%30.07 "HgN/A
3:00 AM50 °FPassing clouds.8 mph88%30.07 "HgN/A
2:30 AM50 °FPassing clouds.5 mph82%30.07 "HgN/A
2:00 AM48 °FPassing clouds.6 mph87%30.07 "HgN/A
1:30 AM46 °FPassing clouds.No wind93%30.09 "HgN/A
1:00 AM48 °FPartly cloudy.No wind87%30.09 "HgN/A
12:30 AM48 °FPassing clouds.No wind82%30.09 "HgN/A
12:00 AM48 °FPassing clouds.1 mph87%30.09 "HgN/A
11:30 PM
Sat, Aug 1
48 °FPartly cloudy.5 mph82%30.09 "HgN/A
11:00 PM48 °FPassing clouds.2 mph87%30.09 "HgN/A
10:30 PM48 °FLight rain. Partly cloudy.5 mph94%30.09 "HgN/A
10:00 PM48 °FLight rain. Partly cloudy.6 mph94%30.07 "Hg5 mi
9:30 PM48 °FLight rain. Partly cloudy.7 mph100%30.07 "Hg4 mi
9:00 PM48 °FLight rain. Partly cloudy.6 mph100%30.07 "Hg4 mi
8:30 PM50 °FLight rain. Passing clouds.6 mph94%30.04 "Hg6 mi
8:00 PM50 °FLight rain. Partly cloudy.6 mph88%30.07 "HgN/A
7:30 PM50 °FLight rain. Partly cloudy.6 mph88%30.04 "HgN/A
7:00 PM50 °FClear.3 mph88%30.04 "Hg10 mi
6:30 PM50 °FClear.5 mph88%30.04 "HgN/A
6:00 PM50 °FOvercast.8 mph88%30.04 "HgN/A
5:30 PM52 °FOvercast.6 mph82%30.01 "HgN/A
5:00 PM52 °FOvercast.8 mph82%30.01 "HgN/A
4:30 PM52 °FPartly sunny.No wind88%30.01 "HgN/A
4:00 PM54 °FDrizzle. Partly sunny.6 mph82%30.01 "HgN/A
3:30 PM52 °FPartly sunny.9 mph82%29.98 "HgN/A
3:00 PM54 °FDrizzle. Broken clouds.8 mph77%29.98 "HgN/A
2:30 PM52 °FScattered showers. Partly sunny.8 mph82%30.01 "HgN/A
2:00 PM54 °FScattered showers. Broken clouds.6 mph82%30.01 "HgN/A
1:30 PM54 °FPartly sunny.6 mph82%30.01 "HgN/A
1:00 PM52 °FLight rain. Broken clouds.9 mph94%30.07 "Hg6 mi
12:30 PM52 °FLight rain. Broken clouds.9 mph88%29.98 "HgN/A
12:00 PM52 °FRain. Low clouds.1 mph88%30.04 "Hg4 mi
11:30 AM52 °FLight rain. Broken clouds.10 mph88%30.04 "HgN/A
11:00 AM52 °FLight rain. Broken clouds.5 mph88%30.01 "HgN/A
10:30 AM52 °FLight rain. Broken clouds.6 mph88%30.01 "Hg6 mi
10:00 AM52 °FLight rain. Broken clouds.9 mph94%30.01 "HgN/A
Weather by CustomWeather, © 2015

See weather overviewHow to use our weather pages